GFSGL_con_lsi_273.txt.gz
Lid_Strength_Index
10 9 9 9 10 10 10 9 9 9 9 8 8 7 6 5 2 1 1 2 4 5 6 7 8 10 11 12 13 13 14 13 16 18 16 17 16 16 16 15 15 15 14
11 10 10 10 10 11 11 10 10 9 9 8 8 8 7 6 4 2 2 2 3 5 7 7 8 10 11 12 13 13 14 15 16 18 18 17 17 16 16 16 16 16 16
11 11 10 10 10 11 10 10 10 10 9 9 9 8 8 7 5 2 2 2 3 4 6 8 11 11 13 13 13 14 14 14 15 17 18 18 18 17 17 16 17 16 17
11 11 12 11 10 10 9 9 9 9 10 9 9 8 7 7 5 3 3 2 3 5 8 8 11 11 12 13 13 13 14 15 15 16 18 18 18 18 17 18 19 17 17
12 11 11 10 10 9 9 9 9 10 9 9 9 8 8 7 6 5 4 3 4 7 9 9 11 11 12 12 12 14 14 15 15 16 18 19 19 19 18 18 17 18 18
12 12 11 10 10 10 9 8 9 10 9 9 9 9 8 8 7 6 5 5 6 8 11 12 12 14 13 12 12 12 12 14 15 16 18 17 19 18 18 18 18 19 18
13 12 11 11 11 10 9 9 10 10 9 9 9 9 9 7 7 7 8 7 7 9 12 14 14 14 14 14 13 13 13 12 13 16 17 17 18 18 18 19 19 18 17
13 12 11 11 11 11 11 10 10 10 9 9 9 9 8 7 7 8 9 9 9 12 13 14 14 15 14 14 14 15 15 15 15 16 16 17 16 17 17 17 17 18 19
13 12 12 11 11 11 11 11 10 11 11 11 11 10 9 9 9 9 10 10 11 13 14 15 15 14 14 13 15 16 17 17 15 15 15 15 15 15 16 17 18 18 18
13 12 12 11 11 11 11 11 11 11 12 11 11 10 11 10 9 9 10 10 12 14 15 15 15 15 13 13 15 15 17 17 16 16 16 15 15 15 15 17 17 17 18
13 13 12 11 11 11 11 11 11 11 11 12 12 12 11 11 10 9 9 11 14 15 15 15 14 13 13 13 14 15 16 17 16 17 17 17 17 17 16 17 17 17 18
14 14 13 12 12 11 11 11 11 11 11 12 12 12 12 11 10 9 10 11 12 15 15 15 14 14 14 15 16 15 15 16 17 18 18 19 19 18 18 18 17 16 16
15 15 14 13 12 12 12 12 12 11 11 12 12 12 12 12 12 11 12 12 13 15 15 15 14 14 15 15 15 15 17 18 18 18 19 18 18 17 18 17 18 17 17
16 15 15 14 14 13 13 13 13 13 14 14 14 14 14 15 15 15 14 15 15 15 15 16 15 15 15 16 16 16 17 17 17 17 17 17 16 16 16 16 16 17 17
15 15 15 14 14 15 14 14 14 14 14 14 14 14 15 16 16 15 15 16 16 16 16 17 17 18 18 18 18 18 18 17 16 16 15 16 16 16 16 16 17 17 18
15 16 16 15 15 15 15 15 13 13 13 13 13 14 15 15 14 14 15 15 15 16 18 18 19 19 19 19 19 19 19 19 19 17 17 17 17 18 18 17 17 18 18
18 18 17 17 17 16 16 16 17 15 13 13 13 13 14 14 14 14 14 15 15 17 19 19 19 19 19 19 19 19 19 19 20 18 17 17 17 17 17 17 17 18 19
21 20 18 18 17 17 17 17 16 16 17 15 13 13 12 12 13 13 14 15 17 17 18 18 18 18 18 18 18 18 19 20 21 21 21 22 22 21 21 22 22 22 22
20 20 20 20 20 20 19 18 18 18 17 16 15 14 13 12 13 14 14 16 16 17 18 19 19 19 20 21 22 23 24 24 24 24 25 26 25 24 25 25 24 27 26
21 22 21 21 21 21 21 20 20 19 18 18 17 17 17 19 19 19 18 18 18 19 20 22 23 24 26 26 26 26 26 27 27 27 27 27 27 26 27 27 27 26 26
22 23 22 22 22 22 21 21 19 18 18 18 18 18 17 21 22 23 24 24 22 23 25 27 29 29 29 29 28 28 28 29 29 30 29 29 29 28 29 28 28 29 29
22 23 24 23 23 22 22 18 17 19 20 22 23 21 21 25 27 28 29 30 31 31 30 29 30 31 30 29 29 29 30 30 30 30 30 31 30 30 30 29 29 29 29
19 22 24 26 24 21 19 19 21 22 25 28 29 29 28 30 31 31 32 32 32 33 33 31 30 32 33 33 32 30 28 29 29 31 30 30 29 28 29 28 29 28 28
18 20 21 24 23 21 21 23 24 28 28 30 30 30 31 31 32 33 34 34 33 34 34 34 33 33 34 34 33 33 33 32 33 31 30 28 27 29 28 29 28 28 28
19 19 22 23 24 24 25 27 28 29 30 30 31 32 33 33 34 34 35 34 35 33 35 36 36 36 36 36 35 33 33 29 30 32 30 29 28 29 30 28 28 27 28
22 22 23 24 25 25 26 28 29 29 30 31 32 32 32 33 34 35 35 35 35 35 36 37 36 37 36 34 34 29 24 23 23 26 26 25 25 26 28 27 27 27 27

GFSGL_con_lsi_279.txt.gz
Lid_Strength_Index
11 11 11 12 12 11 10 9 8 8 8 8 7 7 7 6 6 5 5 5 4 3 1 2 2 1 2 4 5 6 6 6 9 16 14 14 12 13 13 12 13 12 12
11 12 12 12 11 10 9 8 8 9 8 9 8 8 8 7 7 7 7 6 5 4 3 2 2 2 2 4 5 6 6 6 11 15 16 16 14 13 14 14 14 13 14
12 13 13 12 11 10 9 9 8 8 9 8 8 9 8 8 8 7 7 8 7 5 3 2 2 2 3 4 5 5 5 8 10 14 16 15 16 14 16 15 15 15 14
13 13 13 12 11 9 8 9 9 9 9 9 9 8 9 8 8 8 8 8 7 5 4 2 2 2 2 4 5 6 7 10 13 12 15 15 15 16 16 17 17 16 16
14 13 12 11 10 9 10 9 9 9 9 9 9 9 8 8 8 8 8 8 8 7 6 3 2 3 6 4 5 7 9 10 11 14 16 16 17 17 17 16 16 16 16
14 14 12 12 11 10 10 10 10 9 9 9 9 9 9 8 9 9 9 9 9 8 8 4 4 8 7 7 6 7 8 10 11 13 14 15 16 16 16 16 16 17 18
14 14 13 12 11 11 11 10 11 10 9 10 10 9 9 8 8 8 9 9 8 8 8 8 8 7 7 7 7 8 8 8 9 11 13 14 15 16 16 16 16 16 16
15 14 14 13 12 11 12 11 11 10 11 11 10 9 9 9 8 8 9 9 8 8 8 8 9 8 8 9 10 10 11 11 12 13 12 14 14 15 14 15 16 18 19
15 15 14 13 12 12 12 12 12 11 12 11 11 11 11 10 8 8 9 10 11 11 10 10 10 9 9 8 10 12 13 13 11 11 13 13 13 14 15 16 17 17 19
15 14 14 13 12 12 12 12 12 12 12 12 12 11 11 10 8 8 10 11 12 12 12 12 11 10 9 9 11 11 14 15 15 15 15 14 15 14 14 15 16 16 17
14 14 14 13 13 11 11 12 12 12 12 12 12 12 12 11 10 9 9 11 12 12 12 12 11 9 9 10 10 12 15 15 15 17 17 17 17 17 17 16 16 15 16
14 14 14 13 13 12 11 12 12 11 11 12 12 12 12 11 11 10 9 10 10 12 12 11 10 9 9 10 12 13 14 15 16 17 17 18 18 18 17 17 17 17 17
14 14 14 14 13 13 12 11 11 11 12 12 12 13 13 12 12 10 10 10 10 12 12 11 10 12 12 12 13 14 15 16 17 17 18 18 18 18 18 18 18 18 18
14 14 14 14 14 14 13 13 12 12 12 13 13 12 12 12 12 12 11 11 11 11 11 12 13 14 14 16 16 16 16 16 17 17 18 18 17 16 17 16 16 16 15
14 14 14 13 14 14 14 13 14 13 13 13 13 13 13 14 13 12 12 12 13 13 14 14 15 16 17 17 17 16 16 16 16 16 17 17 17 16 16 15 15 16 16
12 13 13 13 13 13 14 14 12 12 13 12 13 13 14 12 12 12 12 12 12 13 14 16 16 17 18 18 18 19 18 18 17 17 16 16 16 16 16 16 16 16 17
13 13 12 13 13 13 14 14 15 14 13 13 13 13 13 13 13 13 13 13 13 14 17 17 18 18 18 18 19 19 19 17 16 16 16 16 16 17 18 19 19 19 20
14 16 13 13 13 13 13 14 13 14 15 15 14 13 13 14 14 14 14 15 17 16 17 17 17 17 17 17 18 18 19 19 20 21 21 21 20 20 22 23 24 25 25
14 13 13 14 14 14 14 14 14 14 15 15 15 15 14 13 13 13 14 16 17 17 17 18 18 18 19 20 21 21 22 22 23 23 24 24 23 24 25 25 27 28 27
15 16 15 14 14 14 14 15 15 15 15 15 16 16 15 16 17 17 17 18 19 19 20 21 21 21 21 22 22 22 23 24 24 25 25 25 25 25 26 27 28 28 29
14 16 16 14 14 14 15 15 16 16 16 16 17 17 16 18 19 20 20 20 21 22 22 23 23 23 23 23 23 24 25 25 26 26 26 26 26 27 28 27 29 30 30
13 14 14 14 15 15 15 15 16 16 17 18 19 19 18 21 22 22 23 24 23 23 23 23 24 24 24 24 24 25 26 26 26 27 28 28 27 28 29 29 29 30 30
13 14 14 15 15 16 15 16 17 17 19 20 21 21 22 23 24 24 25 25 25 25 25 25 26 26 26 25 24 25 26 26 26 27 27 29 29 29 29 29 30 31 31
14 14 15 15 16 15 16 17 18 20 20 21 22 23 24 24 25 26 26 26 26 26 27 27 27 28 29 27 26 27 28 27 29 29 29 28 29 31 29 30 30 31 31
14 14 15 16 16 16 18 20 20 21 21 21 22 24 25 25 26 27 27 27 28 28 29 28 28 29 29 29 30 29 29 30 30 29 31 29 29 30 31 31 31 31 31
14 14 15 15 16 17 19 20 20 21 21 22 23 24 25 25 26 27 27 28 28 29 29 29 29 30 30 30 30 29 26 26 30 30 29 28 28 28 29 30 31 30 30

GFSGL_con_lsi_285.txt.gz
Lid_Strength_Index
11 11 11 12 12 11 12 12 11 12 12 11 11 10 9 9 8 7 7 7 7 6 6 5 5 4 4 3 3 4 4 5 7 9 10 10 10 10 10 6 6 7 6
11 12 12 12 12 12 12 11 11 12 11 11 10 10 9 9 8 8 8 7 7 7 7 6 6 5 4 3 3 4 3 4 6 12 13 12 10 10 10 10 9 7 7
11 12 13 13 12 12 12 12 12 12 11 10 10 10 9 9 8 8 8 7 7 8 7 6 6 5 6 4 3 4 2 3 7 11 14 13 14 11 13 12 13 12 10
12 12 13 13 12 12 12 12 12 12 12 10 10 10 10 9 8 8 8 8 8 7 7 6 6 6 6 5 4 4 4 5 8 9 13 13 14 14 12 12 14 14 14
13 13 13 12 12 12 13 13 12 12 11 10 10 10 10 10 9 9 8 8 8 8 7 6 7 7 8 7 4 4 5 5 7 9 11 13 14 14 13 14 13 14 15
13 13 13 13 13 13 13 13 13 12 11 11 11 10 10 10 9 8 8 9 8 8 8 8 8 9 8 7 6 5 5 5 7 8 11 11 12 13 13 14 14 16 17
13 13 13 13 13 13 13 14 13 13 11 11 11 10 11 10 9 8 8 8 8 9 9 9 9 8 9 8 7 6 6 5 5 6 9 10 12 13 13 14 14 14 15
13 13 13 13 13 14 14 14 13 13 12 11 12 11 11 10 9 8 8 8 9 9 9 10 10 9 9 8 8 7 8 8 8 8 8 9 10 12 13 14 14 17 17
13 13 13 13 14 14 14 14 13 13 11 12 12 12 12 11 9 8 9 11 11 11 11 10 9 9 9 8 9 10 10 10 8 7 8 8 8 9 11 14 16 15 18
12 13 13 13 14 14 14 14 13 13 12 12 12 12 12 11 10 9 9 12 12 12 12 11 11 10 9 8 10 10 10 11 11 11 11 10 10 10 11 12 13 15 19
12 12 12 13 14 14 14 14 14 13 13 12 12 12 12 11 11 8 9 12 12 13 13 12 11 9 9 9 9 11 11 11 11 12 13 13 14 14 14 15 15 15 16
11 12 13 13 14 14 14 14 14 14 14 13 12 13 12 12 10 9 10 10 10 12 12 11 10 9 9 10 11 10 10 11 12 14 15 15 16 16 16 17 16 17 17
12 12 13 13 13 14 14 14 15 14 15 14 14 14 13 12 12 10 9 10 10 12 11 10 10 10 10 11 11 11 12 12 13 15 16 18 17 16 16 17 18 18 19
12 12 13 13 13 14 14 14 15 15 16 15 15 14 13 13 12 12 12 12 12 12 11 12 12 12 12 13 13 13 13 13 14 15 16 16 16 17 17 17 19 20 21
13 13 13 14 13 14 14 14 14 14 14 15 14 14 14 13 12 11 12 13 13 12 12 13 13 14 14 14 14 14 14 14 15 15 17 17 17 18 18 18 18 20 22
14 13 14 15 16 16 15 15 13 13 13 12 12 13 13 12 11 11 10 11 11 12 14 15 15 15 15 15 16 16 16 16 16 17 17 18 19 20 20 21 21 22 24
14 15 16 17 17 18 18 17 18 16 13 13 13 13 12 12 12 12 12 12 12 13 16 17 17 18 18 19 19 20 20 20 18 19 20 20 21 22 22 23 23 25 26
17 17 17 18 17 18 19 19 20 21 17 17 14 14 14 14 14 13 14 15 17 17 18 18 19 20 20 21 21 22 22 21 21 22 22 23 24 24 25 26 26 27 28
17 17 18 18 18 17 19 20 21 22 22 20 20 17 17 15 16 16 17 19 20 21 22 23 23 23 23 23 24 24 24 24 24 25 26 26 27 27 28 28 29 29 30
16 17 17 17 18 18 19 19 21 23 18 18 23 24 24 22 22 23 22 22 23 23 23 23 24 24 24 24 24 25 25 26 26 27 28 28 29 28 29 31 31 31 33
14 16 17 18 16 17 18 20 21 22 18 18 18 21 18 23 25 24 24 24 24 24 24 25 25 25 25 25 26 26 26 27 27 28 28 28 28 30 31 31 32 33 33
14 15 16 16 16 18 17 18 20 22 21 19 19 19 20 25 25 26 26 27 27 28 27 25 26 27 28 26 26 27 28 29 29 29 29 30 30 31 32 32 33 35 37
14 15 16 16 16 18 18 17 18 21 23 25 26 26 27 27 27 28 28 29 28 29 30 27 27 28 29 30 31 28 28 29 29 28 29 30 30 32 33 35 37 39 40
14 15 16 16 17 17 17 17 18 22 23 25 26 27 27 28 29 30 30 29 30 31 31 29 29 29 30 30 30 29 30 32 32 30 29 29 32 34 35 39 39 40 41
14 14 15 16 16 17 18 19 21 22 23 24 25 26 27 28 29 30 30 29 29 29 31 31 28 30 30 30 30 30 27 30 31 31 31 32 33 34 38 39 39 40 41
14 13 14 16 16 17 18 20 21 21 23 24 25 26 26 27 28 28 28 29 29 30 31 31 31 31 31 30 30 28 25 26 30 31 32 32 33 38 39 38 39 40 40

GFSGL_con_lsi_291.txt.gz
Lid_Strength_Index
12 12 11 11 12 12 12 12 12 12 12 12 12 12 11 11 10 10 10 11 11 11 9 8 8 7 8 7 6 5 6 5 6 5 7 8 8 6 7 5 4 5 5
12 11 10 10 10 11 11 11 11 11 11 12 11 11 11 10 10 10 11 11 11 10 9 9 9 8 8 7 7 6 5 4 6 6 8 8 8 7 8 8 7 4 5
10 11 10 11 11 11 11 11 11 11 12 11 11 11 11 10 10 11 11 10 10 9 9 9 9 9 8 7 6 6 6 4 5 6 6 10 10 9 10 11 10 10 8
11 11 10 10 10 11 11 11 11 11 12 12 11 11 11 11 11 11 11 10 10 9 9 8 8 8 8 8 8 7 6 6 6 7 9 10 10 11 10 12 12 12 11
11 11 10 10 10 10 10 11 11 11 12 12 11 11 11 11 11 11 10 10 10 9 9 8 8 8 9 8 7 6 7 9 9 8 9 11 11 11 10 11 11 13 13
11 10 10 11 11 11 11 11 11 11 12 12 11 12 12 12 10 10 9 10 9 9 9 9 8 10 9 8 7 7 6 8 9 8 10 9 11 11 11 10 12 12 12
10 10 11 11 11 11 11 12 12 12 12 12 12 13 12 11 10 9 9 10 10 10 10 10 9 8 10 9 8 7 7 7 6 7 8 9 11 10 11 11 12 12 12
12 11 11 11 11 12 12 12 13 12 12 12 13 13 12 11 10 10 9 10 10 11 10 10 10 10 9 9 9 9 9 8 7 6 6 9 10 9 9 10 11 13 13
14 11 13 11 12 12 12 13 12 12 13 13 13 13 12 11 10 10 9 11 12 12 11 10 10 10 9 8 9 10 10 10 7 7 7 7 7 7 9 10 11 12 15
14 13 13 13 12 12 13 12 12 13 14 14 13 12 12 12 11 10 9 12 12 12 11 10 11 10 9 8 9 10 11 11 11 11 11 11 10 10 10 10 10 13 16
14 14 14 14 11 12 12 12 12 13 14 16 14 13 12 12 12 9 9 11 12 12 12 11 11 9 8 7 7 9 10 11 11 13 13 13 13 14 14 14 13 12 14
15 15 15 15 14 13 12 12 13 14 17 17 14 13 12 12 12 10 10 10 11 12 12 11 11 8 8 8 9 9 10 11 13 14 15 15 15 17 17 17 17 17 17
13 14 15 14 14 14 12 12 14 14 15 16 15 14 13 12 12 11 11 11 11 12 12 11 10 10 10 10 10 11 12 13 14 15 16 17 17 16 16 17 17 18 19
14 13 14 14 14 15 13 11 13 14 14 15 15 14 14 12 13 13 12 12 12 12 12 12 12 12 12 13 13 13 13 13 14 15 16 16 15 17 18 17 18 19 21
14 13 13 13 14 15 15 14 13 13 12 14 14 14 15 13 12 11 12 13 13 12 13 13 13 14 14 14 14 14 14 14 15 15 16 17 18 19 20 20 20 21 22
13 13 12 13 13 15 16 15 13 12 12 12 12 13 13 11 10 11 11 11 12 12 14 15 16 15 16 16 16 16 16 16 16 17 18 19 21 22 23 23 23 23 25
14 13 13 14 13 15 18 16 17 16 12 13 13 13 13 12 12 12 13 13 13 14 16 17 17 17 18 18 18 18 19 19 18 19 20 21 22 24 24 26 26 26 28
15 14 13 13 13 14 17 16 18 19 17 17 15 15 14 14 14 14 14 16 18 18 19 19 19 19 18 19 19 20 20 21 21 22 23 23 24 25 26 26 26 27 28
15 13 13 12 13 13 18 18 19 20 17 17 19 17 18 17 17 16 16 19 20 21 21 22 22 22 22 22 23 23 23 24 24 24 25 24 25 26 27 28 28 28 28
15 14 14 13 14 14 17 17 19 20 19 19 22 23 20 21 21 23 23 23 23 24 24 24 25 24 24 24 24 24 25 25 26 27 27 28 28 28 29 30 30 31 32
14 14 13 15 14 13 15 16 17 19 21 23 24 23 19 24 27 28 28 28 28 27 27 26 26 27 26 25 25 25 26 27 27 28 28 28 28 30 30 30 31 32 32
13 13 15 13 13 13 14 15 16 19 19 22 25 23 19 26 27 28 30 30 31 31 31 27 28 30 31 28 27 27 28 29 29 29 29 29 30 30 31 32 32 33 34
13 13 14 14 13 13 14 15 16 18 19 21 24 27 29 28 29 30 29 32 31 29 30 28 28 30 31 31 31 28 27 28 29 28 29 30 30 31 31 32 33 35 37
12 13 13 13 13 13 14 16 16 18 19 22 24 27 27 28 29 30 31 32 30 31 30 30 30 31 31 31 31 30 29 29 29 29 29 29 32 32 32 33 34 38 38
12 13 13 13 13 13 14 15 16 19 20 22 25 26 28 28 29 30 31 31 31 30 31 31 31 30 30 31 30 30 27 29 30 29 29 30 31 33 33 34 37 40 42
12 13 13 13 13 13 14 15 16 19 21 22 24 25 26 27 28 29 30 30 29 30 31 31 30 29 29 29 29 27 26 27 30 30 30 30 31 33 32 35 39 40 43